Grafton, ND

5:26 PM CDT on May 22, 2017 (GMT -0500)
Grafton Municipal

Weather History for KGAF - April, 2014

Change the Weather History Date:

Saturday, April 19, 2014

  Actual Average Record
Temperature  
Mean Temperature 46 °F -  
Max Temperature 55 °F 58 °F 90 °F (1987)
Min Temperature 35 °F 34 °F 19 °F (1988)
Degree Days  
Heating Degree Days 19    
Moisture  
Dew Point 35 °F    
Average Humidity 67    
Maximum Humidity 87    
Minimum Humidity 47    
Precipitation  
Precipitation 0.00 in - - ()
Sea Level Pressure  
Sea Level Pressure 29.82 in    
Wind  
Wind Speed 17 mph (SW)    
Max Wind Speed 29 mph    
Max Gust Speed 38 mph    
Visibility 10 miles    
Events      
Averages and records for this station are not official NWS values.
T = Trace of Precipitation, MM = Missing Value Source: NWS Daily Summary

Daily Weather History Graph

Daily Weather History Graph

Search for Another Location

Airport or City:

Trip Planner

Search our weather history database for the weather conditions in past years. The results will help you decide how hot, cold, wet, or windy it might be!

Date:

Astronomy

Apr. 19, 2014 Rise Set
Actual Time 6:31 AM CDT 8:26 PM CDT
Civil Twilight 5:58 AM CDT 8:59 PM CDT
Nautical Twilight 5:17 AM CDT 9:41 PM CDT
Astronomical Twilight 4:31 AM CDT 10:27 PM CDT
Moon 12:22 AM CDT (4/19) 9:40 AM CDT (4/19)
Length of Visible Light 15h 01m
Length of Day
13h 54m
Waning Gibbous, 78% of the Moon is Illuminated
Apr 19
Waning Gibbous
Apr 22
Last Quarter
Apr 29
New
May 6
First Quarter
May 14
Full

Hourly Weather History & Observations

Time (CDT) Temp. Windchill Dew Point Humidity Pressure Visibility Wind Dir Wind Speed Gust Speed Precip Events Conditions
12:15 AM 39.2 °F 29.0 °F 32.0 °F 75% 29.85 in 10.0 mi SE 21.9 mph 28.8 mph N/A   Partly Cloudy
12:35 AM 39.2 °F 30.2 °F 32.0 °F 75% 29.84 in 8.0 mi SE 17.3 mph 24.2 mph N/A   Scattered Clouds
12:55 AM 39.2 °F 30.2 °F 32.0 °F 75% 29.84 in 10.0 mi SE 17.3 mph 21.9 mph N/A   Scattered Clouds
1:15 AM 39.2 °F 29.3 °F 32.0 °F 75% 29.82 in 9.0 mi SE 20.7 mph 27.6 mph N/A   Scattered Clouds
1:35 AM 39.2 °F 30.2 °F 32.0 °F 75% 29.79 in 10.0 mi SE 17.3 mph 25.3 mph N/A   Scattered Clouds
1:55 AM 41.0 °F 32.2 °F 32.0 °F 70% 29.79 in 10.0 mi SE 18.4 mph 27.6 mph N/A   Clear
2:15 AM 41.0 °F 31.9 °F 32.0 °F 70% 29.79 in 10.0 mi SE 19.6 mph 24.2 mph N/A   Clear
2:35 AM 41.0 °F 32.5 °F 32.0 °F 70% 29.78 in 10.0 mi SE 17.3 mph 23.0 mph N/A   Clear
2:55 AM 41.0 °F 32.8 °F 32.0 °F 70% 29.77 in 10.0 mi SE 16.1 mph - N/A   Partly Cloudy
3:15 AM 39.2 °F 30.8 °F 32.0 °F 75% 29.75 in 10.0 mi ESE 15.0 mph - N/A   Scattered Clouds
3:35 AM 39.2 °F 30.8 °F 32.0 °F 75% 29.74 in 10.0 mi SE 15.0 mph - N/A   Partly Cloudy
3:55 AM 39.2 °F 30.2 °F 32.0 °F 75% 29.72 in 10.0 mi SE 17.3 mph - N/A   Clear
4:15 AM 41.0 °F 33.1 °F 32.0 °F 70% 29.72 in 10.0 mi SE 15.0 mph - N/A   Clear
4:35 AM 41.0 °F 31.6 °F 32.0 °F 70% 29.72 in 10.0 mi SE 20.7 mph - N/A   Partly Cloudy
4:55 AM 41.0 °F 32.8 °F 32.0 °F 70% 29.72 in 10.0 mi SE 16.1 mph - N/A   Partly Cloudy
5:15 AM 39.2 °F 31.6 °F 33.8 °F 81% 29.71 in 10.0 mi SE 12.7 mph - N/A   Scattered Clouds
5:35 AM 39.2 °F 31.6 °F 33.8 °F 81% 29.71 in 10.0 mi SSE 12.7 mph - N/A   Overcast
5:55 AM 39.2 °F 33.6 °F 33.8 °F 81% 29.70 in 10.0 mi SSE 8.1 mph - N/A   Scattered Clouds
6:15 AM 39.2 °F 33.0 °F 33.8 °F 81% 29.70 in 10.0 mi South 9.2 mph - N/A   Clear
6:35 AM 39.2 °F 32.5 °F 35.6 °F 87% 29.70 in 9.0 mi South 10.4 mph - N/A   Clear
6:55 AM 41.0 °F 34.3 °F 35.6 °F 81% 29.71 in 9.0 mi South 11.5 mph - N/A   Clear
7:15 AM 41.0 °F 35.2 °F 35.6 °F 81% 29.70 in 9.0 mi South 9.2 mph - N/A   Clear
7:35 AM 41.0 °F 34.7 °F 35.6 °F 81% 29.70 in 8.0 mi South 10.4 mph - N/A   Clear
7:55 AM 41.0 °F 33.9 °F 37.4 °F 87% 29.73 in 8.0 mi SW 12.7 mph - N/A   Clear
8:15 AM 42.8 °F 36.6 °F 37.4 °F 81% 29.73 in 8.0 mi WSW 11.5 mph - N/A   Clear
8:35 AM 44.6 °F 38.8 °F 37.4 °F 76% 29.74 in 8.0 mi SW 11.5 mph - N/A   Clear
8:55 AM 44.6 °F 38.8 °F 39.2 °F 81% 29.74 in 8.0 mi SW 11.5 mph - N/A   Clear
9:15 AM 46.4 °F 40.7 °F 37.4 °F 71% 29.74 in 8.0 mi WSW 12.7 mph - N/A   Clear
9:35 AM 48.2 °F - 39.2 °F 71% 29.75 in 8.0 mi SW 11.5 mph - N/A   Clear
9:55 AM 48.2 °F - 39.2 °F 71% 29.75 in 8.0 mi SW 15.0 mph - N/A   Clear
10:15 AM 50.0 °F - 39.2 °F 66% 29.75 in 9.0 mi SW 13.8 mph 21.9 mph N/A   Clear
10:35 AM 53.6 °F - 39.2 °F 58% 29.75 in 10.0 mi WSW 16.1 mph - N/A   Clear
10:55 AM 53.6 °F - 39.2 °F 58% 29.76 in 10.0 mi WSW 20.7 mph 25.3 mph N/A   Clear
11:15 AM 53.6 °F - 37.4 °F 54% 29.77 in 10.0 mi West 23.0 mph 27.6 mph N/A   Clear
11:35 AM 53.6 °F - 35.6 °F 51% 29.78 in 10.0 mi West 24.2 mph 33.4 mph N/A   Clear
11:55 AM 53.6 °F - 35.6 °F 51% 29.79 in 10.0 mi West 25.3 mph 34.5 mph N/A   Partly Cloudy
12:15 PM 53.6 °F - 35.6 °F 51% 29.79 in 10.0 mi West 23.0 mph 32.2 mph N/A   Scattered Clouds
12:35 PM 53.6 °F - 35.6 °F 51% 29.79 in 10.0 mi WSW 20.7 mph 33.4 mph N/A   Mostly Cloudy
12:55 PM 55.4 °F - 37.4 °F 51% 29.80 in 10.0 mi West 25.3 mph 33.4 mph N/A   Mostly Cloudy
1:15 PM 55.4 °F - 35.6 °F 47% 29.80 in 10.0 mi West 27.6 mph 32.2 mph N/A   Mostly Cloudy
1:35 PM 53.6 °F - 35.6 °F 51% 29.81 in 10.0 mi West 28.8 mph 34.5 mph N/A   Mostly Cloudy
1:55 PM 53.6 °F - 37.4 °F 54% 29.82 in 10.0 mi West 24.2 mph 33.4 mph N/A   Mostly Cloudy
2:15 PM 53.6 °F - 37.4 °F 54% 29.82 in 10.0 mi West 27.6 mph 38.0 mph N/A   Overcast
2:35 PM 55.4 °F - 39.2 °F 54% 29.82 in 10.0 mi West 26.5 mph 31.1 mph N/A   Mostly Cloudy
2:55 PM 55.4 °F - 39.2 °F 54% 29.83 in 10.0 mi West 24.2 mph 33.4 mph N/A   Scattered Clouds
3:15 PM 55.4 °F - 39.2 °F 54% 29.83 in 10.0 mi West 26.5 mph 33.4 mph N/A   Mostly Cloudy
3:35 PM 55.4 °F - 39.2 °F 54% 29.84 in 10.0 mi West 27.6 mph 38.0 mph N/A   Mostly Cloudy
3:55 PM 55.4 °F - 39.2 °F 54% 29.84 in 10.0 mi West 25.3 mph 34.5 mph N/A   Mostly Cloudy
4:15 PM 55.4 °F - 39.2 °F 54% 29.85 in 10.0 mi West 27.6 mph 34.5 mph N/A   Mostly Cloudy
4:35 PM 53.6 °F - 39.2 °F 58% 29.86 in 10.0 mi West 23.0 mph 31.1 mph N/A   Mostly Cloudy
4:55 PM 53.6 °F - 39.2 °F 58% 29.87 in 10.0 mi West 26.5 mph 34.5 mph N/A   Mostly Cloudy
5:15 PM 51.8 °F - 39.2 °F 62% 29.88 in 10.0 mi West 25.3 mph 31.1 mph N/A   Mostly Cloudy
5:35 PM 53.6 °F - 39.2 °F 58% 29.88 in 10.0 mi West 23.0 mph 31.1 mph N/A   Scattered Clouds
5:55 PM 53.6 °F - 39.2 °F 58% 29.89 in 10.0 mi West 20.7 mph 31.1 mph N/A   Scattered Clouds
6:15 PM 53.6 °F - 37.4 °F 54% 29.90 in 10.0 mi West 21.9 mph 27.6 mph N/A   Scattered Clouds
6:35 PM 51.8 °F - 35.6 °F 54% 29.91 in 10.0 mi WNW 20.7 mph 31.1 mph N/A   Partly Cloudy
6:55 PM 51.8 °F - 35.6 °F 54% 29.92 in 10.0 mi WNW 19.6 mph 27.6 mph N/A   Clear
7:15 PM 50.0 °F - 35.6 °F 58% 29.93 in 10.0 mi West 18.4 mph 23.0 mph N/A   Clear
7:35 PM 50.0 °F - 35.6 °F 58% 29.93 in 10.0 mi West 15.0 mph 19.6 mph N/A   Clear
7:55 PM 48.2 °F - 35.6 °F 62% 29.94 in 10.0 mi West 13.8 mph - N/A   Clear
8:15 PM 46.4 °F 40.7 °F 35.6 °F 66% 29.94 in 10.0 mi West 12.7 mph - N/A   Clear
8:35 PM 44.6 °F 40.7 °F 35.6 °F 71% 29.96 in 10.0 mi WNW 6.9 mph - N/A   Clear
8:55 PM 44.6 °F 39.2 °F 33.8 °F 66% 29.97 in 10.0 mi WNW 10.4 mph - N/A   Clear
9:15 PM 41.0 °F 35.8 °F 33.8 °F 76% 29.97 in 10.0 mi West 8.1 mph - N/A   Clear
9:35 PM 41.0 °F 35.8 °F 33.8 °F 76% 29.97 in 10.0 mi West 8.1 mph - N/A   Clear
9:55 PM 39.2 °F 33.0 °F 33.8 °F 81% 29.98 in 10.0 mi West 9.2 mph - N/A   Clear
10:15 PM 39.2 °F 34.2 °F 33.8 °F 81% 29.99 in 10.0 mi WNW 6.9 mph - N/A   Clear
10:35 PM 39.2 °F 34.2 °F 33.8 °F 81% 29.99 in 10.0 mi NW 6.9 mph - N/A   Clear
10:55 PM 39.2 °F 34.2 °F 32.0 °F 75% 30.00 in 10.0 mi WNW 6.9 mph - N/A   Clear
11:15 PM 39.2 °F 33.6 °F 32.0 °F 75% 30.00 in 10.0 mi WNW 8.1 mph - N/A   Clear
11:35 PM 37.4 °F 32.1 °F 32.0 °F 81% 30.00 in 10.0 mi WNW 6.9 mph - N/A   Clear
11:55 PM 35.6 °F 30.7 °F 32.0 °F 87% 30.00 in 10.0 mi West 5.8 mph - N/A   Clear